Location: Bidwell Hollow
(37.7387°N, 90.1707°W)
Time: 18:42:21
(UTC+00:00)

Altair - Pass Details

Date: 20 May 2026
Orbit: 1501 x 1682 km, 47.2° (Epoch: 9 June)

Event Time Altitude Azimuth Distance (km) Brightness Sun altitude
Exits shadow 08:42:57 28° 207° (SSW) 2,658 8.2 -20.3°
Maximum altitude 08:48:31 62° 138° (SE) 1,804 7.8 -19.6°
Drops below altitude 10° 08:58:20 10° 62° (ENE) 3,922 10.8 -18.3°
Sets 09:01:34 0° 59° (ENE) 4,925 11.7 -17.8°
